Fort Lewis, WA
on Wednesday, November 14, 2012

Wednesday
Previous Day Next Day
Daily Summary
 ActualAverage (KOLM)Record (KOLM)
Temperature
Mean Temperature °F 44°F  
Max Temperature 50°F 51°F 65°F (1995)
Min Temperature 33°F 37°F 3°F (1955)
Degree Days
Heating Degree Days 24 21  
Month to date heating degree days 278  
Since 1 July heating degree days 1072  
Cooling Degree Days 0 0  
Month to date cooling degree days 0  
Year to date cooling degree days 106  
Moisture
Dew Point 44°F   
Average Humidity 97    
Maximum Humidity 100    
Minimum Humidity 80    
Precipitation
Precipitation 0.00 in 0.30 in 3.64 in (2001)
Month to date precipitation 3.77  
Year to date precipitation 37.68  
Wind
Wind Speed 4 mph   
Max Wind Speed 8 mph   
Max Gust Speed mph   
Visibility 7 miles   
Events Fog   

Key: T is trace of precipitation, MM is missing value
Source: NWS Daily Summary
Time(PST)TemperatureDew PointHumidity Pressure Visibility Wind DirectionWind SpeedGust SpeedPrecipitationEvents Conditions
12:03 AM 48.2°F 48.2°F 100% 30.18 in 10.0 miles SSE 4.6 mph - N/A   Overcast
12:24 AM 48.2°F 48.2°F 100% 30.19 in 10.0 miles WSW 4.6 mph - N/A   Overcast
12:29 AM 48.2°F 48.2°F 100% 30.19 in 10.0 miles WSW 4.6 mph - N/A   Overcast
12:34 AM 48.2°F 48.2°F 100% 30.19 in 10.0 miles SSW 4.6 mph - N/A   Overcast
12:39 AM 48.2°F 48.2°F 100% 30.19 in 10.0 miles South 5.8 mph - N/A   Overcast
12:44 AM 48.2°F 48.2°F 100% 30.19 in 10.0 miles South 5.8 mph - N/A   Overcast
12:49 AM 48.2°F 48.2°F 100% 30.19 in 10.0 miles South 6.9 mph - N/A   Overcast
12:58 AM 48.9°F 48.7°F 99% 30.21 in 10.0 miles South 5.8 mph - N/A   Overcast
1:18 AM 48.2°F 48.2°F 100% 30.19 in 10.0 miles South 4.6 mph - N/A   Overcast
1:23 AM 48.2°F 48.2°F 100% 30.19 in 10.0 miles South 4.6 mph - N/A   Overcast
1:33 AM 48.2°F 48.2°F 100% 30.20 in 10.0 miles South 6.9 mph - N/A   Overcast
1:58 AM 48.2°F 47.7°F 98% 30.22 in 10.0 miles SSE 5.8 mph - N/A   Mostly Cloudy
2:03 AM 48.2°F 48.2°F 100% 30.20 in 10.0 miles SSE 5.8 mph - N/A   Mostly Cloudy
2:13 AM 46.4°F 46.4°F 100% 30.20 in 10.0 miles SSE 5.8 mph - N/A   Scattered Clouds
2:23 AM 46.4°F 44.6°F 93% 30.20 in 10.0 miles SSE 5.8 mph - N/A   Mostly Cloudy
2:58 AM 45.9°F 45.7°F 99% 30.22 in 10.0 miles SSE 6.9 mph - N/A   Overcast
3:53 AM 46.4°F 46.4°F 100% 30.20 in 10.0 miles SSE 8.1 mph - N/A   Overcast
3:58 AM 46.2°F 46.0°F 99% 30.22 in 10.0 miles SE 8.1 mph - N/A   Overcast
4:03 AM 46.4°F 46.4°F 100% 30.20 in 10.0 miles SE 6.9 mph - N/A   Overcast
4:13 AM 46.4°F 46.4°F 100% 30.20 in 10.0 miles SE 6.9 mph - N/A   Overcast
4:58 AM 45.9°F 45.5°F 99% 30.23 in 10.0 miles SSE 5.8 mph - N/A   Overcast
5:58 AM 46.2°F 45.7°F 98% 30.25 in 10.0 miles SSE 4.6 mph - N/A   Overcast
6:58 AM 44.4°F 44.2°F 99% 30.26 in 10.0 miles SE 2.3 mph - N/A   Overcast
7:58 AM 45.5°F 45.3°F 99% 30.28 in 10.0 miles South 1.2 mph - N/A   Overcast
8:58 AM 47.5°F 46.9°F 98% 30.30 in 10.0 miles Calm Calm - N/A   Overcast
9:18 AM 48.2°F 46.4°F 93% 30.28 in 10.0 miles WSW 5.8 mph - N/A   Overcast
9:23 AM 48.2°F 46.4°F 93% 30.28 in 2.0 miles WSW 5.8 mph - N/A   Overcast
9:25 AM 48.2°F 46.4°F 93% 30.28 in 1.8 miles WSW 5.8 mph - N/A   Drizzle
9:34 AM 48.2°F 48.2°F 100% 30.28 in 7.0 miles WSW 4.6 mph - N/A   Overcast
9:49 AM 48.2°F 46.4°F 93% 30.29 in 10.0 miles WSW 5.8 mph - N/A   Overcast
9:58 AM 48.6°F 47.3°F 95% 30.31 in 10.0 miles SW 3.5 mph - 0.00 in   Overcast
10:14 AM 48.2°F 46.4°F 93% 30.30 in 10.0 miles SW 3.5 mph - N/A   Overcast
10:56 AM 50.0°F 46.4°F 87% 30.30 in 10.0 miles Variable 3.5 mph - N/A   Overcast
11:10 AM 50.0°F 46.4°F 87% 30.30 in 10.0 miles West 3.5 mph - N/A   Overcast
11:37 AM 50.0°F 44.6°F 82% 30.29 in 10.0 miles WNW 4.6 mph - N/A   Overcast
11:56 AM 50.0°F 46.4°F 87% 30.30 in 10.0 miles West 3.5 mph - N/A   Overcast
2:58 PM 50.9°F 44.8°F 80% 30.31 in 10.0 miles NW 5.8 mph - N/A   Overcast
3:56 PM 50.0°F 46.4°F 87% 30.30 in 10.0 miles NNW 5.8 mph - N/A   Overcast
4:58 PM 49.5°F 45.1°F 85% 30.32 in 10.0 miles North 2.3 mph - N/A   Overcast
5:58 PM 47.8°F 43.7°F 86% 30.32 in 10.0 miles NE 1.2 mph - N/A   Clear
6:58 PM 44.4°F 43.3°F 96% 30.32 in 10.0 miles Calm Calm - N/A   Clear
7:43 PM 42.8°F 41.0°F 93% 30.30 in 7.0 miles Calm Calm - N/A   Clear
7:48 PM 41.0°F 41.0°F 100% 30.29 in 5.0 miles NE 1.2 mph - N/A   Clear
7:58 PM 42.8°F 42.8°F 100% 30.32 in 5.0 miles Calm Calm - N/A   Clear
8:24 PM 41.0°F 41.0°F 100% 30.29 in 0.5 miles Calm Calm - N/A Fog Fog
8:36 PM 41.0°F 41.0°F 100% 30.29 in 2.0 miles Variable 1.2 mph - N/A   Clear
8:39 PM 41.0°F 41.0°F 100% 30.29 in 3.0 miles Calm Calm - N/A   Clear
8:44 PM 41.0°F 41.0°F 100% 30.29 in 3.0 miles Calm Calm - N/A   Clear
8:58 PM 39.2°F 39.2°F 100% 30.32 in 3.0 miles Variable 1.2 mph - N/A   Clear
9:13 PM 39.2°F 39.2°F 100% 30.29 in 3.0 miles Calm Calm - N/A   Clear
9:18 PM 39.2°F 39.2°F 100% 30.29 in 4.0 miles Calm Calm - N/A   Clear
9:58 PM 39.2°F 39.2°F 100% 30.31 in 3.0 miles SSE 1.2 mph - N/A   Clear
10:18 PM 39.2°F 37.4°F 93% 30.28 in 2.0 miles Calm Calm - N/A   Clear
10:23 PM 39.2°F 37.4°F 93% 30.28 in 0.8 miles NW 2.3 mph - N/A   Clear
10:33 PM 37.4°F 37.4°F 100% 30.28 in 0.5 miles ENE 1.2 mph - N/A Fog Fog
10:48 PM 35.6°F 35.6°F 100% 30.28 in 0.8 miles SE 2.3 mph - N/A   Clear
10:58 PM 34.7°F 34.3°F 99% 30.27 in 0.8 miles SE 2.3 mph - N/A   Clear
11:08 PM 35.6°F 35.6°F 100% 30.27 in 1.0 miles SE 3.5 mph - N/A   Clear
11:18 PM 35.6°F 35.6°F 100% 30.27 in 0.5 miles SE 3.5 mph - N/A Fog Fog
11:23 PM 35.6°F 35.6°F 100% 30.27 in 0.8 miles SE 5.8 mph - N/A   Clear
11:33 PM 33.8°F 33.8°F 100% 30.27 in 0.5 miles SE 5.8 mph - N/A Fog Fog
11:38 PM 33.8°F 33.8°F 100% 30.27 in 0.5 miles SE 4.6 mph - N/A Fog Fog
11:58 PM 33.8°F 32.0°F 93% 30.26 in 0.8 miles SE 4.6 mph - N/A   Mist
Moon Phase
Nov. 14 Nov. 20 Nov. 28 Dec. 06 Dec. 13
Sunrise:07:13 AM (PST) Moon Rise:08:13 AM (PST)11/14
Sunset:04:35 PM (PST) Moon Set:05:25 PM (PST)11/14

Copyright © 2014 The Weather Underground, Inc.